Regional Weather Roundup
Issued by NWS

Home | Current Version | Previous Version | Text Only | Print | Product List | Glossary On
Versions: 1 2 3 4 5 6 7 8 9 10 11 12 13 14 15 16 17 18 19 20 21 22 23 24 25 26 27 28 29 30 31 32 33 34 35 36 37 38 39 40 41 42 43 44 45 46 47 48 49 50
000
ASUS45 KREV 210210
RWRNV
NEVADA REGIONAL WEATHER ROUNDUP
NATIONAL WEATHER SERVICE RENO NV
600 PM PST TUE FEB 20 2018

NOTE: "FAIR" INDICATES FEW OR NO CLOUDS BELOW 12,000 FEET WITH NO
SIGNIFICANT WEATHER AND/OR OBSTRUCTIONS TO VISIBILITY.

NVZ001-003-004-210300-
WESTERN NEVADA

CITY           SKY/WX    TMP DP  RH WIND       PRES   REMARKS
RENO           CLOUDY    32  11  41 E9        30.02R
CARSON CITY    CLOUDY    32   1  27 E8        30.03R
MINDEN         FAIR      32   1  27 W7        30.03R
SLIDE MTN        N/A      9   3  78 SW9         N/A
PYRAMID LAKE     N/A     32 N/A N/A SW2         N/A
FALLON         CLOUDY    31  12  45 NE7       30.05S
LOVELOCK       CLOUDY    27   7  42 SE5       30.07S
HAWTHORNE      CLOUDY    32   3  29 NW7       30.03R
$$

NVZ002-CAZ072-073-210300-
NORTHERN AND CENTRAL SIERRA

CITY           SKY/WX    TMP DP  RH WIND       PRES   REMARKS
S. LAKE TAHOE  CLOUDY    24   4  42 S3        29.97R
TRUCKEE        CLOUDY    25   3  39 W8        30.00R
SQUAW VLY 8000   N/A     14   7  73 SW7         N/A
SUSANVILLE     MOCLDY    32   5  32 CALM      30.03S
BLUE CANYON    CLOUDY    24  11  57 VRB3      30.04R
MAMMOTH LAKES  CLOUDY    25  -1  32 CALM      29.94R
BRIDGEPORT     CLOUDY    23   6  48 SW7       29.92R
$$

NVZ030-031-036-210300-
NORTHERN NEVADA

CITY           SKY/WX    TMP DP  RH WIND       PRES   REMARKS
ELKO           CLEAR     16   3  56 SW5       30.05S
WINNEMUCCA     CLEAR     21   0  39 S8        30.05R
WENDOVER       MOCLDY    26  11  52 S12       30.10R
$$

NVZ035-037-210300-
CENTRAL NEVADA

CITY           SKY/WX    TMP DP  RH WIND       PRES   REMARKS
ELY            CLEAR     14   2  58 CALM      29.99R
EUREKA           N/A     14   0  53 N7        29.99S
$$

NVZ013-014-210300-
SOUTH CENTRAL NEVADA

CITY           SKY/WX    TMP DP  RH WIND       PRES   REMARKS
TONOPAH        MOCLDY    28 -13  16 W5        30.00R
$$

NVZ017-020-022-210300-
SOUTHERN NEVADA

CITY           SKY/WX    TMP DP  RH WIND       PRES   REMARKS
LAS VEGAS      PTCLDY    45   2  17 E8        30.09R
N. LAS VEGAS   PTCLDY    45  -1  14 E3        30.09R
NELLIS AFB     CLEAR     45  -2  14 E7        30.10R
HENDERSON      CLEAR     43   0  16 E3        30.10R
MERCURY        CLEAR     36  -3  19 SW7       30.06R
$$



USA.gov is the U.S. government's official web portal to all federal, state and local government web resources and services.